Simultaneous Nadir Overpasses (SNOs) Predictions

Prediction of SNOs between AQUA and NPP Satellite Orbit:

Table of predicted SNOs for the next 14.0 days since TLE Epoch: 7/26/2018
Index Date (AQUA) Time (AQUA) Lat,Lon (AQUA) SZA (AQUA ) Date (NPP) Time (NPP) Lat,Lon (NPP) SZA (NPP ) Distance(km) Time Diff (sec)
1 07/27/2018 22:39:12 75.26, 77.19 79.75 07/27/2018 22:38:39 75.26, 77.19 79.78 0.13 33
2 07/27/2018 23:28:20 -76.24,-112.27 101.40 07/27/2018 23:29:04 -76.23,-112.34 101.42 1.83 44
3 07/30/2018 14:55:42 75.46,-166.38 80.13 07/30/2018 14:55:32 75.45,-166.45 80.15 2.25 10
4 07/30/2018 15:44:43 -76.77, 5.37 101.42 07/30/2018 15:45:49 -76.78, 5.48 101.49 2.79 66
5 08/02/2018 06:23:03 -74.85, 140.18 98.54 08/02/2018 06:21:58 -74.86, 140.24 98.50 1.78 65
6 08/02/2018 07:12:03 76.06, -48.76 80.08 08/02/2018 07:12:15 76.06, -48.70 80.05 1.84 12
7 08/04/2018 22:39:30 -75.15,-103.18 98.20 08/04/2018 22:38:48 -75.15,-103.15 98.17 0.66 42
8 08/04/2018 23:28:34 76.21, 67.55 80.59 08/04/2018 23:29:09 76.21, 67.56 80.55 0.28 35
9 08/07/2018 14:55:59 -75.39, 13.35 97.77 08/07/2018 14:55:40 -75.39, 13.34 97.76 0.22 19




NCC Satellite Simultaneous Nadir Overpasses (SNOs) Prediction Service
